Wind_Speed
7 8 5 2 1 1 3 6 5 10 8 3 13 4 3 4 1 1 18 23 25 25 25 22 19 20 20 18 15 13 13 12 12 12 12 11 10 9 7 7 8 7 7 8 12 11 9 7 9
7 3 2 1 1 2 4 5 11 9 5 6 7 1 0 3 3 12 22 27 26 26 24 22 21 20 19 16 13 12 10 9 10 10 11 10 8 6 7 6 7 7 8 7 9 11 9 10 9
5 2 1 2 2 3 4 9 10 4 7 14 5 5 2 2 5 26 21 30 28 25 24 23 22 20 17 14 12 10 8 9 9 10 10 9 7 7 6 7 9 7 7 8 9 10 9 10 10
4 3 2 3 6 3 7 10 13 4 3 5 7 5 5 2 16 15 30 28 27 26 24 23 21 18 15 14 12 10 8 8 8 10 11 11 9 7 7 7 8 8 8 7 8 9 8 9 9
4 2 3 2 3 2 6 9 5 3 1 4 2 4 6 2 9 23 29 26 27 26 23 22 19 16 14 14 11 10 9 9 10 10 11 11 10 8 7 7 7 7 6 7 7 7 8 8 8
1 0 3 3 3 1 3 15 5 2 4 7 8 8 2 7 17 28 27 25 26 25 23 21 18 15 14 13 11 11 10 9 9 9 9 9 8 7 7 6 6 6 6 6 6 6 5 6 7
2 1 2 1 2 2 5 13 4 6 6 5 12 5 7 11 19 27 25 26 25 24 23 21 19 15 14 12 11 11 11 10 9 9 8 7 7 6 5 6 5 5 5 5 5 5 5 5 7
1 1 2 1 2 1 5 7 7 9 4 12 5 6 8 20 25 26 24 24 24 23 22 20 18 16 15 12 12 11 10 10 9 8 8 7 5 5 5 4 4 5 5 6 6 6 7 7 7
1 1 1 3 4 2 4 4 5 2 14 4 2 6 13 28 29 26 23 22 24 24 22 20 18 16 14 13 12 11 10 9 8 8 8 7 6 6 5 5 5 6 7 8 8 8 9 9 9
2 1 3 2 1 2 3 5 11 4 11 4 10 13 28 29 28 29 27 26 26 26 24 22 19 17 15 14 13 13 12 11 9 9 7 8 7 5 6 4 6 8 10 10 9 10 11 13 15
2 1 3 3 1 3 5 8 7 10 3 6 14 26 27 26 26 26 27 26 25 24 24 23 20 17 16 15 15 15 13 12 11 10 9 8 8 10 10 8 9 11 13 15 13 13 12 13 16
1 2 1 2 4 2 3 7 6 8 9 6 17 28 27 27 27 26 25 25 23 23 22 21 20 18 16 15 17 14 13 13 13 12 10 9 10 13 13 12 12 14 15 18 17 17 15 16 16
2 2 1 2 5 6 2 6 2 6 2 13 21 26 25 24 25 23 21 20 22 21 20 19 18 18 16 16 15 15 16 15 14 13 12 13 12 13 15 16 16 15 15 16 18 18 17 16 17
3 3 2 2 3 5 4 4 1 3 11 17 21 23 22 23 23 21 23 24 22 20 18 17 17 16 16 16 16 16 15 16 14 14 14 13 14 15 16 16 16 15 15 14 18 18 19 18 18
3 2 3 1 2 3 4 3 0 11 13 18 18 19 20 20 21 25 23 22 20 20 16 16 13 15 16 16 15 15 14 16 16 15 16 16 16 17 17 18 17 13 12 14 15 20 21 21 21
1 1 2 2 2 1 4 3 2 14 15 16 16 19 19 22 25 23 22 21 20 19 21 17 16 16 16 16 17 17 16 16 16 16 16 18 20 21 19 20 19 16 14 14 14 16 23 24 22
3 4 2 1 3 3 5 3 7 14 14 14 16 18 20 21 22 23 22 21 22 21 21 20 20 20 18 18 18 19 19 18 18 18 19 18 19 22 21 21 19 17 18 17 17 19 20 22 24
7 6 2 4 1 6 4 6 8 17 16 16 16 18 20 25 26 24 22 21 21 21 20 21 23 22 22 20 20 20 20 20 19 20 21 20 22 20 22 22 21 19 18 17 18 20 19 19 18
0 4 2 1 3 3 6 8 10 17 18 18 17 19 21 25 22 21 24 24 23 23 24 22 22 23 25 24 24 23 23 22 19 20 21 20 23 23 21 23 18 18 19 17 17 17 19 19 18
3 4 4 2 4 3 3 10 8 15 22 22 22 24 25 24 23 23 27 26 26 27 25 23 22 23 23 23 23 24 23 23 22 22 20 20 20 23 21 19 16 14 16 17 17 15 17 19 18
2 5 3 4 5 2 5 5 7 12 19 19 24 26 25 26 26 25 27 30 28 27 26 23 20 22 23 23 21 23 19 19 21 23 19 18 20 19 14 16 16 16 18 20 19 16 15 17 17
6 7 2 2 2 3 3 4 4 9 14 18 22 26 29 28 27 24 24 27 29 26 25 23 22 21 21 21 19 19 18 17 21 25 25 21 17 17 14 14 15 16 17 19 18 17 16 15 14
2 4 1 2 1 3 2 4 2 0 8 16 23 28 27 26 24 25 25 25 29 28 24 22 22 21 18 15 17 15 13 16 18 17 23 12 13 14 13 15 17 16 19 18 17 18 18 18 14
7 5 3 0 2 3 4 3 3 5 5 4 10 18 20 19 21 24 23 23 24 26 25 25 22 19 14 11 13 17 9 25 22 19 27 14 14 14 16 13 14 13 13 16 16 16 19 18 14
5 4 3 3 2 3 3 4 10 8 7 6 9 6 5 9 15 15 20 18 21 20 19 18 17 15 9 11 12 14 18 20 21 20 13 14 12 11 12 16 13 13 15 15 17 17 15 16 14
6 5 4 3 2 4 1 4 4 2 1 5 7 4 2 1 5 10 12 10 11 12 13 12 9 7 12 14 10 9 14 10 13 21 11 18 15 21 19 16 13 14 14 12 10 12 11 13 14
4 6 2 3 1 5 2 5 12 9 7 11 9 5 1 4 6 6 4 3 5 5 3 4 8 12 13 9 7 2 5 4 3 3 2 5 6 10 12 8 8 9 9 9 9 9 10 12 11
4 9 3 1 4 6 4 5 8 11 8 4 7 5 6 8 8 8 9 7 8 9 10 12 13 13 11 9 8 5 5 9 9 6 5 7 8 5 5 4 4 4 4 6 7 8 9 10 11
5 4 2 1 3 6 7 7 6 10 8 6 7 2 8 9 9 11 16 16 13 11 12 14 17 17 16 14 11 9 10 11 9 5 3 3 2 2 4 4 4 4 4 4 4 5 6 5 6
3 7 8 6 4 2 3 10 2 8 6 7 10 8 7 8 9 13 16 10 12 14 16 20 23 21 18 16 15 15 14 12 11 9 7 6 7 6 6 5 5 4 5 5 5 5 5 5 4
Wind_Direction
130 132 122 65 213 51 83 67 95 109 140 132 162 230 215 48 346 36 149 157 157 151 153 151 148 148 146 140 138 132 130 131 130 131 136 139 140 133 131 148 151 134 129 142 154 161 168 150 139
64 105 26 321 22 56 73 41 98 45 147 122 150 134 70 79 64 138 148 156 157 150 151 152 155 150 146 144 141 137 136 138 140 143 143 143 134 122 121 119 144 144 138 138 150 161 165 166 153
44 40 339 43 62 46 60 90 106 145 137 151 162 95 34 33 125 144 159 154 157 151 148 153 155 155 153 151 151 146 143 141 148 155 150 150 133 136 139 128 138 137 138 138 141 152 159 155 156
26 26 47 40 56 63 80 117 108 66 28 174 131 84 67 101 146 156 154 155 158 152 151 152 158 160 159 158 159 156 157 146 153 155 151 153 153 156 148 144 142 141 136 137 133 142 157 157 165
17 52 53 76 49 73 107 133 149 95 25 120 138 95 105 125 168 154 155 158 161 158 157 159 164 165 164 163 164 161 159 147 149 155 158 155 159 161 153 153 161 156 153 152 148 146 163 167 174
301 131 28 41 9 76 135 160 144 205 166 130 118 113 91 144 167 157 158 160 164 163 161 163 166 165 168 169 166 165 167 160 150 153 160 159 162 158 160 159 156 154 147 147 145 156 177 187 178
264 117 62 102 2 316 119 161 201 155 154 155 150 100 138 154 162 160 161 164 165 166 165 167 166 168 172 175 171 174 173 172 169 169 163 162 162 165 166 167 172 182 179 195 198 204 210 198 199
230 6 131 216 103 19 124 132 162 157 106 133 140 164 174 173 163 164 164 168 171 170 172 173 172 174 176 178 179 179 182 183 184 185 181 179 184 191 196 202 213 212 226 224 226 221 224 231 234
186 247 353 153 170 142 155 130 160 122 139 121 13 156 168 158 161 163 168 174 178 178 181 183 184 186 188 189 192 190 196 192 198 204 205 207 215 215 218 226 241 247 245 243 240 236 234 233 246
210 6 13 23 133 236 194 162 156 163 156 90 82 120 151 156 164 169 176 180 183 185 188 192 194 196 200 200 204 206 204 207 213 219 220 229 234 238 246 260 285 270 269 251 249 244 241 239 238
138 353 127 87 317 237 229 169 160 155 224 200 158 149 156 162 171 178 182 186 186 191 197 198 201 205 211 213 213 216 216 218 225 225 228 234 246 244 234 259 267 269 271 262 264 257 250 244 239
176 104 59 103 28 131 179 169 142 164 203 222 169 164 163 169 177 184 187 190 193 199 204 207 208 215 219 221 225 227 234 232 236 237 236 235 260 251 252 265 277 277 277 253 254 258 250 250 250
98 76 177 198 39 55 184 203 168 175 47 148 158 166 171 175 183 187 192 197 200 208 212 215 219 225 226 230 233 234 233 240 243 247 251 247 262 259 261 268 279 282 279 258 250 253 247 246 250
68 151 198 227 71 58 161 123 126 143 132 144 163 174 177 180 183 190 194 198 204 209 216 220 223 228 231 235 240 242 241 241 248 252 256 264 267 265 270 270 273 281 273 272 255 252 246 253 254
107 216 175 329 96 82 150 171 115 160 152 153 171 181 188 191 191 195 195 198 204 213 217 222 225 230 230 232 239 242 242 244 248 255 260 263 269 271 275 275 268 275 279 276 272 253 253 260 258
42 82 341 62 183 36 191 246 138 170 162 163 179 190 195 197 205 209 211 215 218 221 225 227 229 232 234 235 237 242 246 249 255 258 269 270 272 272 270 273 266 264 267 272 276 271 259 258 260
17 341 294 316 205 151 205 257 190 184 186 173 181 197 208 213 215 219 220 226 227 231 234 236 238 239 241 244 247 250 255 259 263 267 269 275 278 271 266 269 263 264 260 263 272 274 271 267 267
323 321 281 273 186 215 205 243 190 197 199 198 190 199 212 220 223 219 223 231 235 240 244 248 248 250 249 249 251 255 261 267 271 275 280 282 286 277 262 267 265 257 255 255 265 273 276 276 277
35 297 269 211 182 219 251 264 212 204 215 210 209 211 214 222 221 226 232 236 241 247 247 248 251 253 253 253 253 255 262 268 278 280 279 280 295 296 279 268 271 261 254 257 263 271 276 279 281
221 242 233 209 173 233 280 265 228 211 220 223 217 218 219 223 228 233 234 236 243 250 251 255 257 259 258 259 263 267 274 279 284 289 291 291 296 297 289 274 267 261 266 268 264 262 275 281 280
223 242 226 322 159 155 289 267 232 219 228 235 237 237 235 227 225 225 234 237 241 247 251 254 264 264 263 264 265 262 274 284 295 296 299 305 308 306 290 272 270 270 265 266 272 264 260 269 278
276 230 234 250 247 324 333 302 248 216 228 229 237 232 237 235 232 229 228 235 237 242 250 257 261 265 267 266 259 263 282 293 302 307 304 298 301 294 287 283 281 277 275 274 270 263 260 264 272
326 117 156 234 253 286 47 266 269 115 246 243 234 237 238 243 242 240 237 235 240 243 245 254 260 259 258 260 252 246 260 291 288 301 310 314 287 287 293 292 281 276 272 271 258 264 263 258 262
143 118 94 94 294 259 26 308 259 211 228 209 230 242 237 241 245 249 252 254 247 247 249 252 256 253 246 248 247 245 286 296 317 295 298 273 275 280 289 297 286 287 281 279 277 269 262 258 267
206 228 277 241 215 321 9 251 270 260 253 251 279 260 224 236 238 243 245 254 251 246 248 253 253 240 229 234 244 245 288 281 293 295 335 215 251 268 305 269 278 273 282 275 281 275 271 259 267
197 234 254 290 312 337 123 249 282 264 230 224 242 249 316 234 207 207 232 243 245 244 245 255 244 217 225 235 241 212 312 269 305 314 266 214 230 279 284 301 286 288 281 284 274 269 276 273 277
163 210 335 191 168 274 302 272 275 274 254 242 253 263 352 100 128 159 146 151 194 195 162 125 168 192 206 210 146 65 156 252 253 276 126 196 233 302 292 303 290 282 275 276 271 271 278 276 277
237 137 175 211 249 264 257 279 270 296 298 206 240 231 139 112 119 124 128 139 146 133 140 153 168 171 150 136 156 143 173 181 171 169 206 245 256 270 301 319 321 305 297 283 286 288 289 294 289
162 185 81 156 252 272 282 278 218 256 284 215 216 203 151 145 139 138 134 131 135 139 151 160 147 139 138 138 136 145 166 169 169 195 170 154 160 147 110 90 66 42 26 1 340 320 327 325 322
241 226 192 240 214 242 308 273 166 265 283 221 197 164 159 160 177 164 158 153 153 148 142 138 132 127 123 123 126 127 132 134 133 131 131 133 129 122 113 97 81 57 39 23 15 13 5 358 336
Height
1501 1502 1503 1503 1508 1502 1510 1509 1503 1510 1512 1514 1517 1517 1515 1516 1515 1523 1523 1526 1530 1533 1537 1541 1543 1545 1547 1549 1550 1551 1552 1553 1554 1555 1556 1558 1559 1559 1560 1560 1561 1562 1563 1565 1566 1567 1569 1570 1571
1503 1503 1504 1504 1506 1510 1513 1506 1509 1513 1512 1514 1517 1518 1517 1519 1519 1519 1524 1527 1532 1534 1538 1542 1545 1546 1549 1550 1552 1553 1554 1554 1555 1556 1558 1559 1560 1560 1561 1561 1562 1563 1565 1565 1566 1568 1570 1571 1571
1504 1504 1506 1504 1509 1514 1515 1509 1511 1511 1512 1511 1516 1518 1520 1521 1521 1522 1525 1529 1533 1536 1539 1542 1545 1547 1550 1552 1552 1553 1554 1556 1556 1557 1559 1560 1560 1561 1562 1562 1564 1565 1566 1567 1567 1568 1570 1571 1573
1505 1506 1508 1508 1513 1510 1511 1509 1511 1512 1514 1513 1515 1519 1523 1522 1523 1524 1527 1531 1535 1538 1541 1543 1546 1549 1551 1552 1554 1555 1555 1556 1557 1559 1560 1561 1562 1562 1563 1564 1565 1566 1567 1568 1569 1570 1571 1572 1574
1505 1506 1507 1511 1511 1508 1510 1511 1509 1509 1513 1513 1515 1521 1524 1525 1525 1525 1529 1533 1536 1539 1542 1545 1548 1550 1552 1553 1555 1556 1557 1558 1559 1560 1561 1563 1564 1564 1565 1566 1567 1568 1569 1569 1570 1571 1572 1573 1575
1506 1505 1510 1517 1511 1507 1508 1509 1511 1510 1511 1515 1517 1520 1525 1525 1526 1528 1531 1535 1538 1541 1543 1546 1549 1551 1552 1554 1555 1557 1558 1559 1560 1562 1563 1564 1565 1565 1566 1567 1568 1569 1570 1571 1571 1572 1573 1574 1575
1505 1504 1511 1514 1511 1506 1508 1510 1509 1509 1512 1514 1516 1519 1525 1525 1528 1530 1533 1536 1539 1542 1544 1547 1549 1551 1553 1555 1556 1558 1559 1560 1562 1563 1564 1565 1566 1566 1567 1568 1569 1570 1571 1571 1572 1572 1573 1574 1576
1505 1505 1510 1511 1513 1509 1507 1509 1510 1511 1513 1514 1515 1516 1523 1523 1527 1531 1534 1537 1539 1542 1545 1547 1549 1551 1553 1555 1557 1559 1561 1562 1563 1564 1565 1566 1567 1568 1569 1569 1570 1571 1571 1571 1572 1573 1573 1574 1574
1505 1506 1509 1508 1509 1505 1507 1508 1512 1511 1512 1515 1515 1514 1516 1520 1525 1531 1534 1537 1539 1541 1544 1547 1549 1551 1553 1556 1558 1560 1561 1563 1564 1565 1567 1568 1568 1569 1569 1570 1571 1571 1571 1571 1572 1572 1573 1572 1573
1504 1507 1506 1505 1505 1505 1505 1507 1510 1513 1513 1515 1515 1515 1517 1521 1525 1528 1531 1534 1537 1540 1543 1546 1549 1551 1553 1556 1558 1560 1561 1563 1564 1565 1567 1568 1569 1570 1570 1571 1571 1572 1572 1571 1571 1571 1571 1571 1571
1504 1507 1505 1505 1504 1504 1503 1506 1508 1511 1513 1512 1512 1516 1518 1522 1527 1529 1532 1534 1537 1540 1543 1545 1548 1551 1553 1555 1557 1559 1561 1563 1564 1565 1566 1568 1569 1570 1570 1570 1570 1570 1570 1570 1569 1569 1569 1569 1570
1505 1506 1506 1506 1503 1503 1502 1505 1507 1509 1508 1509 1511 1513 1517 1521 1525 1529 1532 1535 1537 1539 1543 1545 1548 1550 1552 1555 1556 1558 1560 1562 1563 1564 1566 1567 1567 1568 1569 1569 1569 1568 1567 1567 1567 1567 1567 1567 1567
1505 1506 1506 1506 1504 1502 1503 1504 1505 1507 1507 1508 1512 1515 1518 1522 1525 1528 1533 1536 1538 1540 1542 1544 1547 1549 1551 1553 1555 1557 1559 1561 1562 1563 1564 1565 1565 1566 1566 1566 1566 1566 1565 1564 1565 1564 1564 1564 1565
1506 1506 1505 1505 1504 1503 1504 1505 1506 1509 1508 1510 1513 1517 1520 1522 1525 1529 1531 1533 1536 1539 1541 1544 1546 1548 1550 1552 1554 1556 1558 1559 1560 1562 1562 1563 1563 1563 1564 1563 1563 1563 1563 1562 1562 1562 1562 1562 1562
1505 1505 1505 1504 1504 1504 1504 1506 1505 1508 1509 1511 1514 1518 1521 1523 1526 1526 1528 1531 1534 1537 1540 1542 1545 1547 1548 1550 1552 1554 1555 1556 1557 1558 1560 1561 1562 1561 1561 1561 1561 1561 1560 1560 1558 1559 1559 1559 1560
1505 1505 1510 1504 1505 1505 1505 1508 1506 1508 1509 1511 1514 1516 1519 1521 1522 1525 1528 1530 1533 1536 1537 1540 1543 1544 1546 1548 1550 1551 1552 1554 1555 1556 1557 1558 1559 1557 1558 1558 1558 1558 1557 1556 1556 1555 1555 1555 1555
1506 1511 1511 1506 1504 1503 1504 1505 1504 1507 1509 1510 1512 1514 1517 1519 1520 1523 1525 1528 1530 1533 1535 1537 1539 1541 1544 1547 1549 1551 1552 1553 1554 1555 1556 1555 1555 1555 1554 1554 1554 1554 1553 1552 1552 1551 1551 1551 1550
1510 1509 1509 1509 1504 1503 1504 1503 1502 1505 1506 1506 1508 1511 1513 1515 1515 1519 1522 1525 1527 1529 1532 1534 1537 1538 1541 1544 1546 1548 1550 1550 1551 1552 1554 1553 1550 1551 1551 1550 1550 1550 1549 1548 1548 1547 1547 1546 1546
1505 1505 1506 1502 1501 1503 1503 1502 1500 1502 1505 1504 1507 1508 1510 1511 1513 1517 1519 1522 1524 1527 1528 1530 1533 1535 1539 1541 1543 1544 1545 1547 1548 1549 1550 1550 1549 1549 1548 1548 1548 1548 1547 1545 1544 1543 1543 1543 1542
1504 1504 1503 1500 1499 1502 1502 1499 1498 1499 1498 1499 1501 1503 1505 1508 1511 1513 1515 1518 1521 1522 1524 1527 1530 1533 1536 1538 1540 1542 1543 1545 1546 1546 1546 1547 1548 1547 1546 1546 1546 1544 1542 1541 1539 1537 1538 1538 1538
1502 1502 1501 1501 1500 1501 1502 1500 1495 1494 1497 1497 1498 1498 1501 1503 1506 1509 1511 1513 1516 1518 1521 1525 1528 1530 1533 1535 1538 1539 1542 1543 1543 1543 1543 1545 1545 1543 1543 1543 1542 1541 1539 1537 1537 1535 1533 1533 1533
1502 1493 1497 1502 1504 1507 1503 1511 1494 1490 1490 1491 1491 1492 1492 1496 1501 1506 1508 1509 1512 1514 1519 1521 1524 1527 1529 1532 1535 1536 1538 1538 1538 1538 1538 1539 1540 1540 1540 1540 1539 1538 1536 1534 1534 1533 1532 1532 1531
1499 1496 1498 1501 1502 1505 1506 1507 1485 1491 1489 1483 1484 1483 1486 1490 1495 1499 1503 1506 1508 1512 1516 1518 1520 1522 1526 1528 1530 1532 1534 1535 1530 1529 1530 1532 1535 1538 1537 1536 1536 1535 1534 1532 1531 1531 1530 1528 1529
1497 1498 1502 1505 1502 1507 1513 1509 1485 1486 1479 1477 1478 1480 1485 1488 1490 1493 1497 1501 1504 1508 1512 1514 1516 1518 1523 1524 1525 1529 1529 1528 1524 1517 1516 1527 1532 1536 1535 1533 1533 1532 1531 1530 1529 1526 1526 1526 1525
1498 1499 1514 1517 1513 1513 1513 1510 1482 1474 1475 1477 1476 1477 1483 1485 1487 1490 1494 1497 1499 1503 1507 1509 1512 1516 1520 1521 1523 1526 1524 1524 1521 1518 1518 1520 1529 1533 1532 1531 1529 1527 1527 1526 1526 1525 1523 1523 1522
1497 1496 1509 1530 1522 1515 1514 1505 1476 1470 1473 1474 1475 1477 1480 1481 1482 1486 1489 1493 1496 1500 1504 1506 1509 1513 1514 1514 1516 1515 1514 1517 1518 1516 1517 1518 1524 1527 1527 1526 1524 1523 1523 1521 1522 1521 1520 1520 1520
1495 1500 1493 1506 1520 1515 1501 1489 1473 1466 1468 1470 1471 1474 1477 1479 1481 1483 1487 1490 1494 1497 1500 1503 1504 1507 1509 1511 1511 1511 1513 1515 1518 1517 1517 1519 1523 1524 1524 1522 1521 1520 1519 1519 1519 1519 1518 1517 1517
1487 1490 1502 1504 1522 1524 1501 1504 1486 1466 1462 1467 1468 1471 1475 1478 1480 1482 1486 1489 1493 1496 1499 1501 1503 1504 1505 1506 1508 1511 1513 1514 1516 1516 1517 1519 1521 1521 1522 1521 1520 1519 1518 1518 1517 1517 1516 1515 1516
1492 1492 1498 1496 1500 1505 1509 1489 1465 1464 1460 1465 1465 1469 1474 1477 1479 1482 1486 1489 1493 1495 1497 1499 1501 1502 1504 1506 1508 1511 1512 1514 1514 1516 1517 1519 1521 1520 1518 1518 1519 1518 1517 1518 1516 1515 1514 1513 1514
1478 1477 1482 1494 1506 1507 1505 1486 1459 1460 1461 1463 1465 1467 1471 1476 1477 1482 1486 1490 1493 1494 1496 1498 1500 1502 1504 1506 1509 1512 1513 1513 1512 1514 1516 1518 1519 1519 1519 1517 1517 1517 1517 1517 1516 1514 1514 1513 1513